Time,TemperatureF,DewpointF,PressureIn,WindDirection,WindDirectionDegrees,WindSpeedMPH,WindSpeedGustMPH,Humidity,HourlyPrecipIn,Conditions,Clouds,dailyrainin,SoftwareType,DateUTC
2013-02-08 00:01:00,31.3,30.5,30.19,WSW,258,0.0,0.0,97,0.00,RA,,0.00,WeatherDisplay:10.37,2013-02-08 08:01:00,
2013-02-08 00:11:00,30.9,30.2,30.20,WSW,258,0.0,0.0,97,0.00,CLR,,0.00,WeatherDisplay:10.37,2013-02-08 08:11:00,
2013-02-08 00:16:00,31.0,30.2,30.20,WSW,258,0.0,0.0,97,0.00,CLR,,0.00,WeatherDisplay:10.37,2013-02-08 08:16:00,
2013-02-08 00:21:00,31.0,30.2,30.20,WSW,257,0.0,0.0,97,0.00,CLR,,0.00,WeatherDisplay:10.37,2013-02-08 08:21:00,
2013-02-08 00:26:00,31.0,30.2,30.21,WSW,258,0.0,0.0,97,0.00,CLR,,0.00,WeatherDisplay:10.37,2013-02-08 08:26:00,
2013-02-08 00:31:00,31.1,30.4,30.21,WSW,258,0.0,0.0,97,0.00,CLR,,0.00,WeatherDisplay:10.37,2013-02-08 08:31:00,
2013-02-08 00:36:00,31.2,30.4,30.20,WSW,258,0.0,0.0,97,0.00,CLR,,0.00,WeatherDisplay:10.37,2013-02-08 08:36:00,
2013-02-08 00:41:00,31.4,31.4,30.21,WSW,255,0.0,1.0,100,0.00,CLR,,0.00,WeatherDisplay:10.37,2013-02-08 08:41:00,
2013-02-08 00:46:00,31.5,31.5,30.20,WSW,249,0.0,0.0,100,0.00,CLR,,0.00,WeatherDisplay:10.37,2013-02-08 08:46:00,
2013-02-08 00:51:00,31.4,30.6,30.21,WSW,248,0.0,0.0,97,0.00,CLR,,0.00,WeatherDisplay:10.37,2013-02-08 08:51:00,
2013-02-08 00:56:00,31.4,30.6,30.21,WSW,248,0.0,0.0,97,0.00,CLR,,0.00,WeatherDisplay:10.37,2013-02-08 08:56:00,
2013-02-08 01:01:00,31.4,30.7,30.21,WSW,248,0.0,1.0,97,0.00,OVC,,0.00,WeatherDisplay:10.37,2013-02-08 09:01:00,
2013-02-08 01:11:00,32.1,32.1,30.21,WSW,247,0.0,0.0,100,0.00,OVC,,0.00,WeatherDisplay:10.37,2013-02-08 09:11:00,
2013-02-08 01:16:00,31.9,31.9,30.21,WSW,248,0.0,0.0,100,0.00,OVC,,0.00,WeatherDisplay:10.37,2013-02-08 09:16:00,
2013-02-08 01:21:00,31.6,31.6,30.21,WSW,248,0.0,0.0,100,0.00,OVC,,0.00,WeatherDisplay:10.37,2013-02-08 09:21:00,
2013-02-08 01:26:00,31.4,30.7,30.21,WSW,248,0.0,0.0,97,0.00,OVC,,0.00,WeatherDisplay:10.37,2013-02-08 09:26:00,
2013-02-08 01:31:00,31.3,30.6,30.22,WSW,248,0.0,0.0,97,0.00,SCT,,0.00,WeatherDisplay:10.37,2013-02-08 09:31:00,
2013-02-08 01:36:00,31.3,30.6,30.21,WSW,248,0.0,0.0,97,0.00,SCT,,0.00,WeatherDisplay:10.37,2013-02-08 09:36:00,
2013-02-08 01:41:00,31.3,31.3,30.22,WSW,248,0.0,0.0,100,0.00,SCT,,0.00,WeatherDisplay:10.37,2013-02-08 09:41:00,
2013-02-08 01:46:00,31.5,31.5,30.22,WSW,248,0.0,0.0,100,0.00,SCT,,0.00,WeatherDisplay:10.37,2013-02-08 09:46:00,
2013-02-08 01:51:00,31.6,31.6,30.22,WSW,248,0.0,0.0,100,0.00,SCT,,0.00,WeatherDisplay:10.37,2013-02-08 09:51:00,
2013-02-08 01:56:00,32.0,32.0,30.22,West,265,0.0,1.0,100,0.00,SCT,,0.00,WeatherDisplay:10.37,2013-02-08 09:56:00,
2013-02-08 02:01:00,32.3,32.3,30.22,ENE,70,0.0,1.0,100,0.00,OVC,,0.00,WeatherDisplay:10.37,2013-02-08 10:01:00,
2013-02-08 02:11:00,32.1,32.1,30.22,ESE,110,0.0,0.0,100,0.00,OVC,,0.00,WeatherDisplay:10.37,2013-02-08 10:11:00,
2013-02-08 02:16:00,31.9,31.1,30.22,ESE,110,0.0,0.0,97,0.00,OVC,,0.00,WeatherDisplay:10.37,2013-02-08 10:16:00,
2013-02-08 02:21:00,32.0,32.0,30.22,ESE,110,0.0,0.0,100,0.00,OVC,,0.00,WeatherDisplay:10.37,2013-02-08 10:21:00,
2013-02-08 02:26:00,31.9,31.9,30.22,ESE,110,0.0,0.0,100,0.00,OVC,,0.00,WeatherDisplay:10.37,2013-02-08 10:26:00,
2013-02-08 02:31:00,31.9,31.9,30.22,ESE,110,0.0,0.0,100,0.00,OVC,,0.00,WeatherDisplay:10.37,2013-02-08 10:31:00,
2013-02-08 02:36:00,31.8,31.8,30.22,ESE,110,0.0,0.0,100,0.00,OVC,,0.00,WeatherDisplay:10.37,2013-02-08 10:36:00,
2013-02-08 02:41:00,31.6,31.6,30.23,ESE,110,0.0,0.0,100,0.00,OVC,,0.00,WeatherDisplay:10.37,2013-02-08 10:41:00,
2013-02-08 02:46:00,31.1,30.3,30.23,ESE,110,0.0,0.0,97,0.00,OVC,,0.00,WeatherDisplay:10.37,2013-02-08 10:46:00,
2013-02-08 02:51:00,30.7,29.9,30.23,ESE,110,0.0,0.0,97,0.00,OVC,,0.00,WeatherDisplay:10.37,2013-02-08 10:51:00,
2013-02-08 02:56:00,30.5,29.8,30.23,ESE,110,0.0,0.0,97,0.00,OVC,,0.00,WeatherDisplay:10.37,2013-02-08 10:56:00,
2013-02-08 03:01:00,30.2,29.4,30.23,ESE,110,0.0,0.0,97,0.00,OVC,,0.00,WeatherDisplay:10.37,2013-02-08 11:01:00,
2013-02-08 03:11:00,29.8,29.1,30.23,ESE,110,0.0,0.0,97,0.00,OVC,,0.00,WeatherDisplay:10.37,2013-02-08 11:11:00,
2013-02-08 03:16:00,29.8,29.8,30.23,ESE,110,0.0,0.0,100,0.00,OVC,,0.00,WeatherDisplay:10.37,2013-02-08 11:16:00,
2013-02-08 03:21:00,29.9,29.9,30.23,ESE,110,0.0,0.0,100,0.00,OVC,,0.00,WeatherDisplay:10.37,2013-02-08 11:21:00,
2013-02-08 03:26:00,30.0,30.0,30.23,ESE,110,0.0,0.0,100,0.00,OVC,,0.00,WeatherDisplay:10.37,2013-02-08 11:26:00,
2013-02-08 03:31:00,29.9,29.9,30.23,ESE,110,0.0,0.0,100,0.00,OVC,,0.00,WeatherDisplay:10.37,2013-02-08 11:31:00,
2013-02-08 03:36:00,30.1,30.1,30.23,ESE,110,0.0,0.0,100,0.00,OVC,,0.00,WeatherDisplay:10.37,2013-02-08 11:36:00,
2013-02-08 03:41:00,30.2,30.2,30.23,ESE,110,0.0,0.0,100,0.00,OVC,,0.00,WeatherDisplay:10.37,2013-02-08 11:41:00,
2013-02-08 03:46:00,30.6,30.6,30.23,ESE,110,0.0,0.0,100,0.00,OVC,,0.00,WeatherDisplay:10.37,2013-02-08 11:46:00,
2013-02-08 03:51:00,30.8,30.8,30.23,ESE,110,0.0,1.0,100,0.00,OVC,,0.00,WeatherDisplay:10.37,2013-02-08 11:51:00,
2013-02-08 03:56:00,30.9,30.9,30.23,ESE,110,0.0,0.0,100,0.00,OVC,,0.00,WeatherDisplay:10.37,2013-02-08 11:56:00,
2013-02-08 04:01:00,31.0,31.0,30.23,ESE,110,0.0,0.0,100,0.00,OVC,,0.00,WeatherDisplay:10.37,2013-02-08 12:01:00,
2013-02-08 04:11:00,31.3,31.3,30.24,ESE,110,0.0,1.0,100,0.00,OVC,,0.00,WeatherDisplay:10.37,2013-02-08 12:11:00,
2013-02-08 04:16:00,31.5,31.5,30.24,ESE,110,0.0,0.0,100,0.00,OVC,,0.00,WeatherDisplay:10.37,2013-02-08 12:16:00,
2013-02-08 04:21:00,31.6,31.6,30.24,ESE,110,0.0,0.0,100,0.00,OVC,,0.00,WeatherDisplay:10.37,2013-02-08 12:21:00,
2013-02-08 04:26:00,31.6,31.6,30.24,ESE,110,0.0,1.0,100,0.00,OVC,,0.00,WeatherDisplay:10.37,2013-02-08 12:26:00,
2013-02-08 04:31:00,31.7,31.7,30.25,ESE,110,0.0,0.0,100,0.00,OVC,,0.00,WeatherDisplay:10.37,2013-02-08 12:31:00,
2013-02-08 04:36:00,31.8,31.8,30.25,ESE,110,0.0,0.0,100,0.00,OVC,,0.00,WeatherDisplay:10.37,2013-02-08 12:36:00,
2013-02-08 04:46:00,31.9,31.9,30.25,ESE,110,0.0,0.0,100,0.00,OVC,,0.00,WeatherDisplay:10.37,2013-02-08 12:46:00,
2013-02-08 04:51:00,32.0,32.0,30.25,ESE,110,0.0,1.0,100,0.00,OVC,,0.00,WeatherDisplay:10.37,2013-02-08 12:51:00,
2013-02-08 04:56:00,32.0,32.0,30.26,ESE,110,0.0,1.0,100,0.00,OVC,,0.00,WeatherDisplay:10.37,2013-02-08 12:56:00,
2013-02-08 05:01:00,32.0,32.0,30.26,ESE,110,0.0,1.0,100,0.00,OVC,,0.00,WeatherDisplay:10.37,2013-02-08 13:01:00,
2013-02-08 05:11:00,31.8,31.8,30.26,ESE,121,0.0,0.0,100,0.00,OVC,,0.00,WeatherDisplay:10.37,2013-02-08 13:11:00,
2013-02-08 05:16:00,31.6,31.6,30.26,ESE,121,0.0,0.0,100,0.00,OVC,,0.00,WeatherDisplay:10.37,2013-02-08 13:16:00,
2013-02-08 05:21:00,31.5,31.5,30.26,ESE,121,0.0,0.0,100,0.00,OVC,,0.00,WeatherDisplay:10.37,2013-02-08 13:21:00,
2013-02-08 05:26:00,31.3,31.3,30.26,ESE,121,0.0,0.0,100,0.00,OVC,,0.00,WeatherDisplay:10.37,2013-02-08 13:26:00,
2013-02-08 05:31:00,31.1,31.1,30.26,ESE,121,0.0,0.0,100,0.00,OVC,,0.00,WeatherDisplay:10.37,2013-02-08 13:31:00,
2013-02-08 05:36:00,30.9,30.9,30.26,ESE,121,0.0,0.0,100,0.00,OVC,,0.00,WeatherDisplay:10.37,2013-02-08 13:36:00,
2013-02-08 05:41:00,30.6,29.9,30.26,ESE,121,0.0,0.0,97,0.00,OVC,,0.00,WeatherDisplay:10.37,2013-02-08 13:41:00,
2013-02-08 05:46:00,30.5,30.5,30.26,ESE,121,0.0,0.0,100,0.00,OVC,,0.00,WeatherDisplay:10.37,2013-02-08 13:46:00,
2013-02-08 05:51:00,30.3,30.3,30.26,ESE,121,0.0,0.0,100,0.00,OVC,,0.00,WeatherDisplay:10.37,2013-02-08 13:51:00,
2013-02-08 05:56:00,30.3,30.3,30.26,ESE,121,0.0,1.0,100,0.00,OVC,,0.00,WeatherDisplay:10.37,2013-02-08 13:56:00,
2013-02-08 06:01:00,30.3,30.3,30.26,ESE,121,0.0,0.0,100,0.00,OVC,,0.00,WeatherDisplay:10.37,2013-02-08 14:01:00,
2013-02-08 06:11:00,30.0,30.0,30.26,ESE,121,0.0,1.0,100,0.00,OVC,,0.00,WeatherDisplay:10.37,2013-02-08 14:11:00,
2013-02-08 06:16:00,29.8,29.8,30.26,ESE,121,0.0,0.0,100,0.00,OVC,,0.00,WeatherDisplay:10.37,2013-02-08 14:16:00,
2013-02-08 06:21:00,29.7,29.7,30.26,ESE,120,0.0,1.0,100,0.00,OVC,,0.00,WeatherDisplay:10.37,2013-02-08 14:21:00,
2013-02-08 06:26:00,29.7,29.7,30.26,ESE,121,0.0,1.0,100,0.00,OVC,,0.00,WeatherDisplay:10.37,2013-02-08 14:26:00,
2013-02-08 06:31:00,29.8,29.8,30.26,ESE,116,0.0,1.0,100,0.00,OVC,,0.00,WeatherDisplay:10.37,2013-02-08 14:31:00,
2013-02-08 06:36:00,29.9,29.9,30.26,East,100,0.0,2.0,100,0.00,OVC,,0.00,WeatherDisplay:10.37,2013-02-08 14:36:00,
2013-02-08 06:41:00,29.9,29.9,30.26,East,95,0.0,1.0,100,0.00,OVC,,0.00,WeatherDisplay:10.37,2013-02-08 14:41:00,
2013-02-08 06:46:00,29.9,29.9,30.26,East,95,0.0,1.0,100,0.00,OVC,,0.00,WeatherDisplay:10.37,2013-02-08 14:46:00,
2013-02-08 06:51:00,29.9,29.9,30.26,East,95,0.0,1.0,100,0.00,OVC,,0.00,WeatherDisplay:10.37,2013-02-08 14:51:00,
2013-02-08 06:56:00,29.8,29.8,30.26,East,96,0.0,1.0,100,0.00,OVC,,0.00,WeatherDisplay:10.37,2013-02-08 14:56:00,
2013-02-08 07:01:00,29.8,29.8,30.26,East,96,0.0,0.0,100,0.00,OVC,,0.00,WeatherDisplay:10.37,2013-02-08 15:01:00,
2013-02-08 07:11:00,29.6,29.6,30.26,East,96,0.0,0.0,100,0.00,OVC,,0.00,WeatherDisplay:10.37,2013-02-08 15:11:00,
2013-02-08 07:16:00,29.4,29.4,30.27,East,96,0.0,0.0,100,0.00,OVC,,0.00,WeatherDisplay:10.37,2013-02-08 15:16:00,
2013-02-08 07:21:00,29.3,29.3,30.27,East,96,0.0,0.0,100,0.00,OVC,,0.00,WeatherDisplay:10.37,2013-02-08 15:21:00,
2013-02-08 07:26:00,29.3,29.3,30.27,East,96,0.0,0.0,100,0.00,OVC,,0.00,WeatherDisplay:10.37,2013-02-08 15:26:00,
2013-02-08 07:31:00,29.2,29.2,30.27,East,96,0.0,0.0,100,0.00,OVC,,0.00,WeatherDisplay:10.37,2013-02-08 15:31:00,
2013-02-08 07:36:00,29.3,29.3,30.28,East,96,0.0,1.0,100,0.00,OVC,,0.00,WeatherDisplay:10.37,2013-02-08 15:36:00,
2013-02-08 07:46:00,29.8,29.8,30.28,East,93,0.0,1.0,100,0.00,OVC,,0.00,WeatherDisplay:10.37,2013-02-08 15:46:00,
2013-02-08 07:51:00,30.0,30.0,30.28,East,89,0.0,0.0,100,0.00,OVC,,0.00,WeatherDisplay:10.37,2013-02-08 15:51:00,
2013-02-08 07:56:00,30.3,30.3,30.28,East,89,0.0,0.0,100,0.00,OVC,,0.00,WeatherDisplay:10.37,2013-02-08 15:56:00,
2013-02-08 08:01:00,30.5,30.5,30.28,East,89,0.0,0.0,100,0.00,OVC,,0.00,WeatherDisplay:10.37,2013-02-08 16:01:00,
2013-02-08 08:11:00,30.9,30.9,30.28,East,89,0.0,0.0,100,0.00,OVC,,0.00,WeatherDisplay:10.37,2013-02-08 16:11:00,
2013-02-08 08:16:00,31.2,31.2,30.29,East,89,0.0,1.0,100,0.00,OVC,,0.00,WeatherDisplay:10.37,2013-02-08 16:16:00,
2013-02-08 08:21:00,31.3,31.3,30.29,East,89,0.0,1.0,100,0.00,OVC,,0.00,WeatherDisplay:10.37,2013-02-08 16:21:00,
2013-02-08 08:26:00,31.4,31.4,30.29,East,89,0.0,0.0,100,0.00,OVC,,0.00,WeatherDisplay:10.37,2013-02-08 16:26:00,
2013-02-08 08:31:00,31.5,31.5,30.29,East,89,0.0,1.0,100,0.00,OVC,,0.00,WeatherDisplay:10.37,2013-02-08 16:31:00,
2013-02-08 08:36:00,31.6,31.6,30.29,East,89,0.0,1.0,100,0.00,OVC,,0.00,WeatherDisplay:10.37,2013-02-08 16:36:00,
2013-02-08 08:41:00,31.8,31.8,30.29,East,89,0.0,0.0,100,0.00,OVC,,0.00,WeatherDisplay:10.37,2013-02-08 16:41:00,
2013-02-08 08:46:00,31.9,31.9,30.29,East,89,0.0,1.0,100,0.00,OVC,,0.00,WeatherDisplay:10.37,2013-02-08 16:46:00,
2013-02-08 08:51:00,32.1,32.1,30.30,East,89,0.0,1.0,100,0.00,OVC,,0.00,WeatherDisplay:10.37,2013-02-08 16:51:00,
2013-02-08 08:56:00,32.4,32.4,30.30,East,89,0.0,1.0,100,0.00,OVC,,0.00,WeatherDisplay:10.37,2013-02-08 16:56:00,
2013-02-08 09:01:00,32.6,32.6,30.30,East,89,1.0,1.0,100,0.00,OVC,,0.00,WeatherDisplay:10.37,2013-02-08 17:01:00,
2013-02-08 09:11:00,32.7,32.7,30.30,ESE,116,0.0,1.0,100,0.00,OVC,,0.00,WeatherDisplay:10.37,2013-02-08 17:11:00,
2013-02-08 09:21:00,32.6,32.6,30.30,SE,124,1.0,2.0,100,0.00,OVC,,0.00,WeatherDisplay:10.37,2013-02-08 17:21:00,
2013-02-08 09:26:00,32.6,32.6,30.30,SE,132,0.0,0.0,100,0.00,OVC,,0.00,WeatherDisplay:10.37,2013-02-08 17:26:00,
2013-02-08 09:36:00,32.9,32.9,30.30,SE,138,0.0,1.0,100,0.00,OVC,,0.00,WeatherDisplay:10.37,2013-02-08 17:36:00,
2013-02-08 09:41:00,32.9,32.9,30.30,ESE,120,0.0,1.0,100,0.00,OVC,,0.00,WeatherDisplay:10.37,2013-02-08 17:41:00,
2013-02-08 09:46:00,33.0,33.0,30.31,ESE,112,0.0,1.0,100,0.00,OVC,,0.00,WeatherDisplay:10.37,2013-02-08 17:46:00,
2013-02-08 09:51:00,33.1,33.1,30.31,ESE,117,0.0,1.0,100,0.00,OVC,,0.00,WeatherDisplay:10.37,2013-02-08 17:51:00,
2013-02-08 09:56:00,33.4,33.4,30.31,ESE,122,0.0,1.0,100,0.00,OVC,,0.00,WeatherDisplay:10.37,2013-02-08 17:56:00,
2013-02-08 10:01:00,33.7,33.7,30.31,ESE,122,0.0,0.0,100,0.00,OVC,,0.00,WeatherDisplay:10.37,2013-02-08 18:01:00,
2013-02-08 10:11:00,34.1,34.1,30.31,ESE,121,0.0,1.0,100,0.00,OVC,,0.00,WeatherDisplay:10.37,2013-02-08 18:11:00,
2013-02-08 10:16:00,34.2,34.2,30.31,East,89,0.0,1.0,100,0.00,OVC,,0.00,WeatherDisplay:10.37,2013-02-08 18:16:00,
2013-02-08 10:21:00,34.6,34.6,30.32,ENE,77,0.0,1.0,100,0.00,OVC,,0.00,WeatherDisplay:10.37,2013-02-08 18:21:00,
2013-02-08 10:31:00,35.2,35.2,30.31,ENE,62,0.0,1.0,100,0.00,OVC,,0.00,WeatherDisplay:10.37,2013-02-08 18:31:00,
2013-02-08 10:36:00,35.6,35.6,30.31,NE,51,0.0,1.0,100,0.00,OVC,,0.00,WeatherDisplay:10.37,2013-02-08 18:36:00,
2013-02-08 10:46:00,36.1,36.1,30.31,East,96,0.0,1.0,100,0.00,OVC,,0.00,WeatherDisplay:10.37,2013-02-08 18:46:00,
2013-02-08 10:51:00,36.3,36.3,30.31,ESE,109,0.0,1.0,100,0.00,OVC,,0.00,WeatherDisplay:10.37,2013-02-08 18:51:00,
2013-02-08 11:01:00,36.7,36.7,30.32,WSW,247,0.0,1.0,100,0.00,OVC,,0.00,WeatherDisplay:10.37,2013-02-08 19:01:00,
2013-02-08 11:11:00,37.5,37.0,30.32,East,95,1.0,2.0,98,0.00,OVC,,0.00,WeatherDisplay:10.37,2013-02-08 19:11:00,
2013-02-08 11:21:00,38.3,36.7,30.32,ENE,63,0.0,3.0,94,0.00,OVC,,0.00,WeatherDisplay:10.37,2013-02-08 19:21:00,
2013-02-08 11:26:00,38.6,36.7,30.32,NE,55,1.0,2.0,93,0.00,OVC,,0.00,WeatherDisplay:10.37,2013-02-08 19:26:00,
2013-02-08 11:31:00,38.7,36.3,30.32,East,93,0.0,2.0,91,0.00,OVC,,0.00,WeatherDisplay:10.37,2013-02-08 19:31:00,
2013-02-08 11:36:00,39.2,36.8,30.31,East,79,0.0,1.0,91,0.00,OVC,,0.00,WeatherDisplay:10.37,2013-02-08 19:36:00,
2013-02-08 11:46:00,39.8,36.8,30.31,East,97,1.0,3.0,89,0.00,OVC,,0.00,WeatherDisplay:10.37,2013-02-08 19:46:00,
2013-02-08 11:51:00,40.6,37.6,30.31,SE,126,0.0,1.0,89,0.00,OVC,,0.00,WeatherDisplay:10.37,2013-02-08 19:51:00,
2013-02-08 11:56:00,41.1,37.2,30.30,NNE,16,1.0,1.0,86,0.00,OVC,,0.00,WeatherDisplay:10.37,2013-02-08 19:56:00,
2013-02-08 12:01:00,41.6,37.4,30.30,NW,322,1.0,2.0,85,0.00,OVC,,0.00,WeatherDisplay:10.37,2013-02-08 20:01:00,
2013-02-08 12:11:00,42.2,38.0,30.29,SSW,198,0.0,2.0,85,0.00,OVC,,0.00,WeatherDisplay:10.37,2013-02-08 20:11:00,
2013-02-08 12:16:00,42.8,38.0,30.29,East,101,0.0,2.0,83,0.00,OVC,,0.00,WeatherDisplay:10.37,2013-02-08 20:16:00,
2013-02-08 12:21:00,43.3,38.2,30.29,East,100,1.0,2.0,82,0.00,OVC,,0.00,WeatherDisplay:10.37,2013-02-08 20:21:00,
2013-02-08 12:26:00,44.0,38.2,30.29,East,94,2.0,5.0,80,0.00,OVC,,0.00,WeatherDisplay:10.37,2013-02-08 20:26:00,
2013-02-08 12:31:00,44.1,38.0,30.29,East,83,1.0,3.0,79,0.00,OVC,,0.00,WeatherDisplay:10.37,2013-02-08 20:31:00,
2013-02-08 12:36:00,43.9,38.2,30.29,ENE,77,0.0,1.0,80,0.00,OVC,,0.00,WeatherDisplay:10.37,2013-02-08 20:36:00,
2013-02-08 12:41:00,43.9,37.8,30.29,SE,124,0.0,2.0,79,0.00,OVC,,0.00,WeatherDisplay:10.37,2013-02-08 20:41:00,
2013-02-08 12:46:00,43.6,37.5,30.29,West,260,0.0,2.0,79,0.00,OVC,,0.00,WeatherDisplay:10.37,2013-02-08 20:46:00,
2013-02-08 12:51:00,43.6,37.8,30.29,West,275,0.0,1.0,80,0.00,OVC,,0.00,WeatherDisplay:10.37,2013-02-08 20:51:00,
2013-02-08 12:56:00,43.6,37.8,30.29,NW,304,1.0,2.0,80,0.00,OVC,,0.00,WeatherDisplay:10.37,2013-02-08 20:56:00,
2013-02-08 13:01:00,43.5,37.4,30.29,NE,48,1.0,2.0,79,0.00,OVC,,0.00,WeatherDisplay:10.37,2013-02-08 21:01:00,
2013-02-08 13:11:00,43.3,37.5,30.29,NNE,32,0.0,1.0,80,0.00,OVC,,0.00,WeatherDisplay:10.37,2013-02-08 21:11:00,
2013-02-08 13:16:00,43.5,38.1,30.29,NNE,17,1.0,3.0,81,0.00,OVC,,0.00,WeatherDisplay:10.37,2013-02-08 21:16:00,
2013-02-08 13:21:00,43.4,37.3,30.29,WNW,296,0.0,2.0,79,0.00,OVC,,0.00,WeatherDisplay:10.37,2013-02-08 21:21:00,
2013-02-08 13:26:00,43.6,38.2,30.28,West,272,0.0,1.0,81,0.00,OVC,,0.00,WeatherDisplay:10.37,2013-02-08 21:26:00,
2013-02-08 13:31:00,43.7,37.6,30.29,SW,223,0.0,2.0,79,0.00,BKN,,0.00,WeatherDisplay:10.37,2013-02-08 21:31:00,
2013-02-08 13:36:00,43.7,37.6,30.29,West,259,0.0,2.0,79,0.00,BKN,,0.00,WeatherDisplay:10.37,2013-02-08 21:36:00,
2013-02-08 13:41:00,43.6,37.5,30.29,West,272,0.0,2.0,79,0.00,BKN,,0.00,WeatherDisplay:10.37,2013-02-08 21:41:00,
2013-02-08 13:46:00,43.4,37.6,30.28,West,276,0.0,3.0,80,0.00,BKN,,0.00,WeatherDisplay:10.37,2013-02-08 21:46:00,
2013-02-08 13:51:00,43.3,37.2,30.28,NW,310,0.0,2.0,79,0.00,BKN,,0.00,WeatherDisplay:10.37,2013-02-08 21:51:00,
2013-02-08 13:56:00,43.4,37.6,30.28,ESE,116,0.0,2.0,80,0.00,BKN,,0.00,WeatherDisplay:10.37,2013-02-08 21:56:00,
2013-02-08 14:01:00,43.4,37.6,30.28,West,270,0.0,1.0,80,0.00,BKN,,0.00,WeatherDisplay:10.37,2013-02-08 22:01:00,
2013-02-08 14:11:00,43.9,38.1,30.28,WSW,238,0.0,2.0,80,0.00,BKN,,0.00,WeatherDisplay:10.37,2013-02-08 22:11:00,
2013-02-08 14:16:00,44.0,38.2,30.28,SW,230,0.0,1.0,80,0.00,OVC,,0.00,WeatherDisplay:10.37,2013-02-08 22:16:00,
2013-02-08 14:21:00,43.9,38.1,30.28,SSE,155,0.0,2.0,80,0.00,OVC,,0.00,WeatherDisplay:10.37,2013-02-08 22:21:00,
2013-02-08 14:26:00,43.7,37.9,30.28,SE,136,1.0,2.0,80,0.00,OVC,,0.00,WeatherDisplay:10.37,2013-02-08 22:26:00,
2013-02-08 14:31:00,43.5,37.7,30.28,SSE,148,0.0,2.0,80,0.00,OVC,,0.00,WeatherDisplay:10.37,2013-02-08 22:31:00,
2013-02-08 14:36:00,43.4,37.7,30.28,SE,144,0.0,3.0,80,0.00,OVC,,0.00,WeatherDisplay:10.37,2013-02-08 22:36:00,
2013-02-08 14:41:00,43.5,37.7,30.28,SE,138,0.0,1.0,80,0.00,OVC,,0.00,WeatherDisplay:10.37,2013-02-08 22:41:00,
2013-02-08 14:46:00,43.5,37.7,30.28,SSW,201,0.0,2.0,80,0.00,OVC,,0.00,WeatherDisplay:10.37,2013-02-08 22:46:00,
2013-02-08 14:51:00,43.6,38.2,30.29,WSW,254,0.0,1.0,81,0.00,OVC,,0.00,WeatherDisplay:10.37,2013-02-08 22:51:00,
2013-02-08 14:56:00,43.5,37.4,30.29,NNW,344,0.0,1.0,79,0.00,OVC,,0.00,WeatherDisplay:10.37,2013-02-08 22:56:00,
2013-02-08 15:01:00,43.3,37.9,30.29,NNE,23,0.0,1.0,81,0.00,OVC,,0.00,WeatherDisplay:10.37,2013-02-08 23:01:00,
2013-02-08 15:11:00,43.3,37.5,30.29,NNE,15,0.0,1.0,80,0.00,OVC,,0.00,WeatherDisplay:10.37,2013-02-08 23:11:00,
2013-02-08 15:16:00,43.4,37.6,30.29,NE,55,0.0,1.0,80,0.00,OVC,,0.00,WeatherDisplay:10.37,2013-02-08 23:16:00,
2013-02-08 15:21:00,43.5,37.7,30.29,South,180,0.0,0.0,80,0.00,OVC,,0.00,WeatherDisplay:10.37,2013-02-08 23:21:00,
2013-02-08 15:26:00,43.5,37.1,30.29,SSE,154,0.0,1.0,78,0.00,OVC,,0.00,WeatherDisplay:10.37,2013-02-08 23:26:00,
2013-02-08 15:31:00,43.6,37.5,30.29,SE,124,0.0,2.0,79,0.00,OVC,,0.00,WeatherDisplay:10.37,2013-02-08 23:31:00,
2013-02-08 15:36:00,43.7,37.7,30.29,SW,215,0.0,2.0,79,0.00,OVC,,0.00,WeatherDisplay:10.37,2013-02-08 23:36:00,
2013-02-08 15:41:00,43.9,37.2,30.29,SW,234,0.0,2.0,77,0.00,OVC,,0.00,WeatherDisplay:10.37,2013-02-08 23:41:00,
2013-02-08 15:46:00,43.9,37.5,30.29,ESE,121,0.0,1.0,78,0.00,OVC,,0.00,WeatherDisplay:10.37,2013-02-08 23:46:00,
2013-02-08 15:51:00,43.9,36.5,30.29,East,97,0.0,2.0,75,0.00,OVC,,0.00,WeatherDisplay:10.37,2013-02-08 23:51:00,
2013-02-08 15:56:00,43.9,36.4,30.29,East,94,0.0,1.0,75,0.00,OVC,,0.00,WeatherDisplay:10.37,2013-02-08 23:56:00,
2013-02-08 16:01:00,43.9,36.8,30.29,East,94,0.0,1.0,76,0.00,OVC,,0.00,WeatherDisplay:10.37,2013-02-09 00:01:00,
2013-02-08 16:11:00,43.8,37.1,30.29,East,93,0.0,1.0,77,0.00,OVC,,0.00,WeatherDisplay:10.37,2013-02-09 00:11:00,
2013-02-08 16:16:00,43.6,36.5,30.29,ENE,62,1.0,4.0,76,0.00,OVC,,0.00,WeatherDisplay:10.37,2013-02-09 00:16:00,
2013-02-08 16:21:00,43.3,36.9,30.29,NE,48,1.0,3.0,78,0.00,OVC,,0.00,WeatherDisplay:10.37,2013-02-09 00:21:00,
2013-02-08 16:26:00,42.9,36.5,30.29,ENE,70,1.0,3.0,78,0.00,OVC,,0.00,WeatherDisplay:10.37,2013-02-09 00:26:00,
2013-02-08 16:31:00,42.7,36.6,30.29,ENE,70,0.0,1.0,79,0.00,OVC,,0.00,WeatherDisplay:10.37,2013-02-09 00:31:00,
2013-02-08 16:36:00,42.5,36.4,30.29,NE,47,0.0,1.0,79,0.00,OVC,,0.00,WeatherDisplay:10.37,2013-02-09 00:36:00,
2013-02-08 16:46:00,42.0,36.3,30.29,ENE,65,0.0,0.0,80,0.00,OVC,,0.00,WeatherDisplay:10.37,2013-02-09 00:46:00,
2013-02-08 16:51:00,41.7,36.0,30.29,ENE,65,0.0,0.0,80,0.00,OVC,,0.00,WeatherDisplay:10.37,2013-02-09 00:51:00,
2013-02-08 16:56:00,41.5,36.1,30.29,ENE,65,0.0,0.0,81,0.00,OVC,,0.00,WeatherDisplay:10.37,2013-02-09 00:56:00,
2013-02-08 17:01:00,41.2,36.1,30.29,ENE,65,0.0,1.0,82,0.00,OVC,,0.00,WeatherDisplay:10.37,2013-02-09 01:01:00,
2013-02-08 17:11:00,40.6,35.5,30.28,ENE,65,0.0,0.0,82,0.00,OVC,,0.00,WeatherDisplay:10.37,2013-02-09 01:11:00,
2013-02-08 17:16:00,40.2,35.4,30.28,ENE,65,0.0,0.0,83,0.00,OVC,,0.00,WeatherDisplay:10.37,2013-02-09 01:16:00,
2013-02-08 17:21:00,39.7,35.0,30.28,ENE,65,0.0,0.0,83,0.00,OVC,,0.00,WeatherDisplay:10.37,2013-02-09 01:21:00,
2013-02-08 17:26:00,39.5,35.0,30.28,ENE,65,0.0,0.0,84,0.00,OVC,,0.00,WeatherDisplay:10.37,2013-02-09 01:26:00,
2013-02-08 17:31:00,39.1,34.7,30.28,ENE,65,0.0,0.0,84,0.00,OVC,,0.00,WeatherDisplay:10.37,2013-02-09 01:31:00,
2013-02-08 17:41:00,38.4,34.3,30.28,ENE,65,0.0,0.0,85,0.00,OVC,,0.00,WeatherDisplay:10.37,2013-02-09 01:41:00,
2013-02-08 17:46:00,38.0,34.2,30.29,ENE,65,0.0,0.0,86,0.00,OVC,,0.00,WeatherDisplay:10.37,2013-02-09 01:46:00,
2013-02-08 17:51:00,37.6,34.0,30.28,ENE,65,0.0,0.0,87,0.00,OVC,,0.00,WeatherDisplay:10.37,2013-02-09 01:51:00,
2013-02-08 17:56:00,37.2,34.0,30.28,ENE,65,0.0,0.0,88,0.00,OVC,,0.00,WeatherDisplay:10.37,2013-02-09 01:56:00,
2013-02-08 18:01:00,37.0,34.1,30.28,ENE,65,0.0,0.0,89,0.00,OVC,,0.00,WeatherDisplay:10.37,2013-02-09 02:01:00,
2013-02-08 18:11:00,36.7,33.8,30.28,ENE,65,0.0,1.0,89,0.00,OVC,,0.00,WeatherDisplay:10.37,2013-02-09 02:11:00,
2013-02-08 18:16:00,36.6,33.9,30.29,ENE,65,0.0,0.0,90,0.00,OVC,,0.00,WeatherDisplay:10.37,2013-02-09 02:16:00,
2013-02-08 18:21:00,36.4,33.8,30.28,ENE,65,0.0,0.0,90,0.00,OVC,,0.00,WeatherDisplay:10.37,2013-02-09 02:21:00,
2013-02-08 18:26:00,36.3,33.9,30.28,ENE,65,0.0,0.0,91,0.00,OVC,,0.00,WeatherDisplay:10.37,2013-02-09 02:26:00,
2013-02-08 18:31:00,36.2,33.8,30.28,ENE,65,0.0,0.0,91,0.00,OVC,,0.00,WeatherDisplay:10.37,2013-02-09 02:31:00,
2013-02-08 18:36:00,36.2,33.8,30.28,ENE,65,0.0,0.0,91,0.00,OVC,,0.00,WeatherDisplay:10.37,2013-02-09 02:36:00,
2013-02-08 18:41:00,36.3,33.9,30.28,ENE,65,0.0,0.0,91,0.00,OVC,,0.00,WeatherDisplay:10.37,2013-02-09 02:41:00,
2013-02-08 18:46:00,36.4,34.0,30.28,ENE,65,0.0,0.0,91,0.00,OVC,,0.00,WeatherDisplay:10.37,2013-02-09 02:46:00,
2013-02-08 18:51:00,36.5,34.2,30.28,ENE,65,0.0,0.0,91,0.00,OVC,,0.00,WeatherDisplay:10.37,2013-02-09 02:51:00,
2013-02-08 18:56:00,36.7,34.6,30.28,ENE,65,0.0,0.0,92,0.00,OVC,,0.00,WeatherDisplay:10.37,2013-02-09 02:56:00,
2013-02-08 19:01:00,36.8,34.7,30.28,ENE,65,0.0,0.0,92,0.00,OVC,,0.00,WeatherDisplay:10.37,2013-02-09 03:01:00,
2013-02-08 19:11:00,37.1,34.7,30.28,ENE,65,0.0,0.0,91,0.00,OVC,,0.00,WeatherDisplay:10.37,2013-02-09 03:11:00,
2013-02-08 19:16:00,37.2,34.6,30.28,ENE,65,0.0,0.0,90,0.00,OVC,,0.00,WeatherDisplay:10.37,2013-02-09 03:16:00,
2013-02-08 19:21:00,37.4,34.7,30.28,ENE,65,0.0,0.0,90,0.00,OVC,,0.00,WeatherDisplay:10.37,2013-02-09 03:21:00,
2013-02-08 19:26:00,37.6,34.9,30.28,ENE,65,0.0,0.0,90,0.00,OVC,,0.00,WeatherDisplay:10.37,2013-02-09 03:26:00,
2013-02-08 19:31:00,37.8,34.8,30.28,ENE,65,0.0,0.0,89,0.00,OVC,,0.00,WeatherDisplay:10.37,2013-02-09 03:31:00,
2013-02-08 19:36:00,38.0,35.0,30.29,ENE,64,0.0,1.0,89,0.00,OVC,,0.00,WeatherDisplay:10.37,2013-02-09 03:36:00,
2013-02-08 19:41:00,38.6,35.4,30.29,East,87,0.0,1.0,88,0.00,OVC,,0.00,WeatherDisplay:10.37,2013-02-09 03:41:00,
2013-02-08 19:46:00,39.2,35.6,30.29,SW,233,0.0,1.0,87,0.00,OVC,,0.00,WeatherDisplay:10.37,2013-02-09 03:46:00,
2013-02-08 19:56:00,39.6,35.8,30.29,WSW,237,0.0,0.0,86,0.00,OVC,,0.00,WeatherDisplay:10.37,2013-02-09 03:56:00,
2013-02-08 20:01:00,39.5,35.9,30.29,WSW,238,0.0,0.0,87,0.00,OVC,,0.00,WeatherDisplay:10.37,2013-02-09 04:01:00,
2013-02-08 20:11:00,39.0,36.0,30.29,WSW,238,0.0,0.0,89,0.00,OVC,,0.00,WeatherDisplay:10.37,2013-02-09 04:11:00,
2013-02-08 20:16:00,38.8,35.8,30.29,WSW,238,0.0,0.0,89,0.00,OVC,,0.00,WeatherDisplay:10.37,2013-02-09 04:16:00,
2013-02-08 20:26:00,38.5,35.8,30.29,WSW,238,0.0,0.0,90,0.00,OVC,,0.00,WeatherDisplay:10.37,2013-02-09 04:26:00,
2013-02-08 20:31:00,38.5,35.5,30.29,WSW,238,0.0,0.0,89,0.00,OVC,,0.00,WeatherDisplay:10.37,2013-02-09 04:31:00,
2013-02-08 20:36:00,38.5,35.8,30.28,WSW,238,0.0,0.0,90,0.00,OVC,,0.00,WeatherDisplay:10.37,2013-02-09 04:36:00,
2013-02-08 20:41:00,38.4,35.8,30.29,WSW,238,0.0,0.0,90,0.00,OVC,,0.00,WeatherDisplay:10.37,2013-02-09 04:41:00,
2013-02-08 20:46:00,38.4,35.7,30.29,WSW,238,0.0,0.0,90,0.00,OVC,,0.00,WeatherDisplay:10.37,2013-02-09 04:46:00,
2013-02-08 20:56:00,38.4,35.7,30.29,WSW,238,0.0,0.0,90,0.00,OVC,,0.00,WeatherDisplay:10.37,2013-02-09 04:56:00,
2013-02-08 21:01:00,38.4,36.0,30.29,WSW,238,0.0,0.0,91,0.00,OVC,,0.00,WeatherDisplay:10.37,2013-02-09 05:01:00,
2013-02-08 21:06:00,38.4,36.0,30.29,WSW,238,0.0,0.0,91,0.00,OVC,,0.00,WeatherDisplay:10.37,2013-02-09 05:06:00,
2013-02-08 21:11:00,38.4,36.0,30.29,WSW,238,0.0,0.0,91,0.00,OVC,,0.00,WeatherDisplay:10.37,2013-02-09 05:11:00,
2013-02-08 21:16:00,38.4,36.0,30.29,WSW,238,0.0,0.0,91,0.00,OVC,,0.00,WeatherDisplay:10.37,2013-02-09 05:16:00,
2013-02-08 21:21:00,38.3,35.9,30.29,WSW,238,0.0,0.0,91,0.00,OVC,,0.00,WeatherDisplay:10.37,2013-02-09 05:21:00,
2013-02-08 21:26:00,38.3,35.6,30.29,WSW,238,0.0,0.0,90,0.00,OVC,,0.00,WeatherDisplay:10.37,2013-02-09 05:26:00,
2013-02-08 21:31:00,38.4,35.7,30.29,WSW,238,0.0,0.0,90,0.00,OVC,,0.00,WeatherDisplay:10.37,2013-02-09 05:31:00,
2013-02-08 21:36:00,38.4,35.7,30.29,WSW,238,0.0,0.0,90,0.00,OVC,,0.00,WeatherDisplay:10.37,2013-02-09 05:36:00,
2013-02-08 21:41:00,38.4,35.7,30.29,WSW,238,0.0,0.0,90,0.00,OVC,,0.00,WeatherDisplay:10.37,2013-02-09 05:41:00,
2013-02-08 21:46:00,38.4,35.7,30.29,WSW,238,0.0,0.0,90,0.00,OVC,,0.00,WeatherDisplay:10.37,2013-02-09 05:46:00,
2013-02-08 21:56:00,38.4,36.0,30.29,WSW,238,0.0,0.0,91,0.00,OVC,,0.00,WeatherDisplay:10.37,2013-02-09 05:56:00,
2013-02-08 22:01:00,38.4,36.0,30.29,WSW,238,0.0,0.0,91,0.00,OVC,,0.00,WeatherDisplay:10.37,2013-02-09 06:01:00,
2013-02-08 22:11:00,38.3,35.9,30.29,WSW,238,0.0,1.0,91,0.00,OVC,,0.00,WeatherDisplay:10.37,2013-02-09 06:11:00,
2013-02-08 22:16:00,38.3,35.9,30.29,WSW,238,0.0,0.0,91,0.00,OVC,,0.00,WeatherDisplay:10.37,2013-02-09 06:16:00,
2013-02-08 22:21:00,38.3,35.9,30.29,WSW,238,0.0,0.0,91,0.00,OVC,,0.00,WeatherDisplay:10.37,2013-02-09 06:21:00,
2013-02-08 22:26:00,38.3,35.9,30.29,WSW,238,0.0,0.0,91,0.00,OVC,,0.00,WeatherDisplay:10.37,2013-02-09 06:26:00,
2013-02-08 22:31:00,38.3,35.9,30.29,WSW,238,0.0,0.0,91,0.00,OVC,,0.00,WeatherDisplay:10.37,2013-02-09 06:31:00,
2013-02-08 22:36:00,38.3,35.9,30.29,WSW,238,0.0,0.0,91,0.00,OVC,,0.00,WeatherDisplay:10.37,2013-02-09 06:36:00,
2013-02-08 22:41:00,38.2,35.8,30.29,WSW,238,0.0,0.0,91,0.00,OVC,,0.00,WeatherDisplay:10.37,2013-02-09 06:41:00,
2013-02-08 22:46:00,38.2,36.1,30.29,WSW,238,0.0,0.0,92,0.00,OVC,,0.00,WeatherDisplay:10.37,2013-02-09 06:46:00,
2013-02-08 22:51:00,38.3,36.2,30.28,WSW,238,0.0,0.0,92,0.00,OVC,,0.00,WeatherDisplay:10.37,2013-02-09 06:51:00,
2013-02-08 22:56:00,38.3,36.1,30.28,WSW,238,0.0,0.0,92,0.00,OVC,,0.00,WeatherDisplay:10.37,2013-02-09 06:56:00,
2013-02-08 23:01:00,38.2,36.1,30.28,WSW,238,0.0,0.0,92,0.00,OVC,,0.00,WeatherDisplay:10.37,2013-02-09 07:01:00,
2013-02-08 23:11:00,38.2,36.1,30.28,WSW,238,0.0,0.0,92,0.00,OVC,,0.00,WeatherDisplay:10.37,2013-02-09 07:11:00,
2013-02-08 23:16:00,38.2,36.1,30.28,WSW,238,0.0,0.0,92,0.00,OVC,,0.00,WeatherDisplay:10.37,2013-02-09 07:16:00,
2013-02-08 23:21:00,38.2,36.1,30.28,WSW,238,0.0,0.0,92,0.00,OVC,,0.00,WeatherDisplay:10.37,2013-02-09 07:21:00,
2013-02-08 23:26:00,38.1,36.0,30.28,WSW,238,0.0,0.0,92,0.00,OVC,,0.00,WeatherDisplay:10.37,2013-02-09 07:26:00,
2013-02-08 23:31:00,38.2,36.1,30.28,WSW,238,0.0,0.0,92,0.00,OVC,,0.00,WeatherDisplay:10.37,2013-02-09 07:31:00,
2013-02-08 23:36:00,38.2,36.1,30.28,WSW,238,0.0,0.0,92,0.00,OVC,,0.00,WeatherDisplay:10.37,2013-02-09 07:36:00,
2013-02-08 23:41:00,38.2,36.1,30.28,WSW,237,0.0,1.0,92,0.00,OVC,,0.00,WeatherDisplay:10.37,2013-02-09 07:41:00,
2013-02-08 23:46:00,38.1,36.0,30.28,SSW,204,0.0,1.0,92,0.00,OVC,,0.00,WeatherDisplay:10.37,2013-02-09 07:46:00,
2013-02-08 23:51:00,38.1,36.0,30.28,SSE,149,0.0,0.0,92,0.00,OVC,,0.00,WeatherDisplay:10.37,2013-02-09 07:51:00,
2013-02-08 23:56:00,38.2,36.1,30.28,SSE,149,0.0,0.0,92,0.00,OVC,,0.00,WeatherDisplay:10.37,2013-02-09 07:56:00,